"startDT [UTC]","vpos","CH4 [ppm]","stdev(CH4) [ppm]","CO2 [ppm]","stdev(CO2) [ppm]","H2O_reported [%]","stdev(H2O_reported)","CavityPressure [torr]","CavityTemp [C]","OutletValve","CH4_dry [ppm]","CO2_dry [ppm]","DasTemp [C]","EtalonTemp [C]","WarmBoxTemp [C]","MPVPosition","T_ECpre [C]","T_EC1 [C]","T_EC2 [C]","p_inlet [hPa]","p_in [hPa]","p_out [hPa]","T_inlet [C]","RH_inlet [%]","dwpt_inlet [C]","T_vent [C]","RH_vent [%]","dwpt_vent [C]","flow_vent [l min-1]","flow_inlet [l min-1]","dwpt_sample [C]","T_room [C]"
2013-07-16 00:00:00,3.0,1.87009,0.00296,394.686,5.379,0.2525,0.3776,139.978,45.000,30959.68212,1.87580,395.540,35.813,45.051,45.000,0.00,0.13,-272.54,-272.62,-27,462,-8,25.9,21.9,2.5,25.7,22.9,2.9,5.73,2.52,4.2,28.2
2013-07-16 00:01:00,3.0,1.87514,0.00064,396.890,0.064,0.0325,0.0011,139.998,45.000,30913.75927,1.87554,397.063,35.813,45.051,45.000,0.00,0.13,-272.55,-272.62,-27,462,-8,26.0,21.9,2.5,25.7,22.9,2.9,5.73,2.56,4.2,28.1
2013-07-16 00:02:00,3.0,1.87595,0.00029,396.875,0.033,0.0282,0.0022,140.001,45.000,30902.58801,1.87648,397.008,35.813,45.051,45.000,0.00,0.13,-272.55,-272.62,-27,462,-8,25.9,21.7,2.4,25.7,22.7,2.8,5.73,2.56,4.2,28.1
2013-07-16 00:03:00,3.0,1.87597,0.00043,397.075,0.096,0.0233,0.0018,140.008,45.000,30894.14705,1.87642,397.172,35.818,45.051,45.000,0.00,0.13,-272.54,-272.62,-27,462,-8,26.0,21.7,2.4,25.7,22.7,2.8,5.73,2.53,4.2,28.0
2013-07-16 00:04:00,3.0,1.87604,0.00032,397.365,0.062,0.0180,0.0022,140.003,45.000,30882.97609,1.87640,397.440,35.831,45.051,45.000,0.00,0.13,-272.55,-272.62,-27,462,-8,26.0,21.9,2.5,25.7,22.8,2.9,5.73,2.51,4.2,28.2
2013-07-16 00:05:00,3.0,1.87598,0.00025,397.504,0.026,0.0155,0.0026,140.001,45.000,30875.60459,1.87624,397.574,35.830,45.051,45.000,0.00,0.13,-272.55,-272.62,-27,462,-8,26.0,21.9,2.6,25.7,22.9,3.0,5.73,2.49,4.2,28.0
2013-07-16 00:06:00,3.0,1.87602,0.00040,397.519,0.025,0.0124,0.0024,139.996,45.000,30870.57169,1.87627,397.578,35.822,45.051,45.000,0.00,0.13,-272.55,-272.62,-27,462,-8,26.0,21.7,2.4,25.8,22.7,2.8,5.73,2.49,4.2,28.2
2013-07-16 00:07:00,3.0,1.87594,0.00024,397.583,0.052,0.0092,0.0017,140.002,45.000,30867.62596,1.87610,397.621,35.821,45.051,45.000,0.00,0.13,-272.55,-272.62,-27,462,-8,26.0,21.8,2.5,25.8,22.7,2.9,5.73,2.52,4.2,28.3
2013-07-16 00:08:00,3.0,1.87607,0.00024,397.620,0.033,0.0079,0.0019,140.004,45.000,30864.56624,1.87621,397.659,35.826,45.051,45.000,0.00,0.13,-272.55,-272.62,-27,463,-8,26.0,21.8,2.5,25.8,22.7,2.9,5.73,2.55,4.2,28.3
2013-07-16 00:09:00,3.0,1.87632,0.00018,397.670,0.026,0.0051,0.0019,140.002,45.000,30859.45576,1.87638,397.692,35.838,45.051,45.000,0.00,0.13,-272.55,-272.62,-27,463,-8,26.0,21.8,2.5,25.8,22.7,2.9,5.73,2.56,4.2,28.2
2013-07-16 00:10:00,3.0,1.87630,0.00023,397.682,0.028,0.0055,0.0019,140.001,45.000,30856.99181,1.87638,397.712,35.830,45.051,45.000,0.00,0.13,-272.55,-272.62,-27,463,-8,26.1,21.6,2.4,25.8,22.5,2.8,5.73,2.55,4.2,28.2
2013-07-16 00:11:00,3.0,1.87628,0.00037,397.685,0.020,0.0038,0.0015,140.000,45.000,30854.89581,1.87634,397.700,35.847,45.051,45.000,0.00,0.13,-272.55,-272.62,-27,463,-8,26.1,21.5,2.4,25.8,22.4,2.8,5.73,2.52,4.2,28.4
2013-07-16 00:12:00,3.0,1.87666,0.00023,397.674,0.029,0.0042,0.0015,139.999,45.000,30852.76006,1.87673,397.693,35.822,45.051,45.000,0.00,0.13,-272.55,-272.62,-27,463,-8,26.1,21.7,2.5,25.9,22.6,2.9,5.73,2.50,4.2,28.3
2013-07-16 00:13:00,3.0,1.87648,0.00024,397.711,0.035,0.0041,0.0012,140.000,45.000,30852.10887,1.87656,397.734,35.820,45.051,45.000,0.00,0.13,-272.55,-272.62,-27,463,-8,26.1,21.4,2.3,25.9,22.3,2.7,5.73,2.49,4.2,28.3
2013-07-16 00:14:00,3.0,1.87649,0.00029,397.684,0.013,0.0032,0.0021,140.001,45.000,30853.37635,1.87659,397.699,35.829,45.051,45.000,0.00,0.13,-272.55,-272.62,-27,463,-8,26.1,21.2,2.2,25.9,22.1,2.6,5.73,2.50,4.2,28.1
2013-07-16 00:15:00,3.0,1.87635,0.00020,397.663,0.031,0.0046,0.0028,140.001,45.000,30852.38067,1.87646,397.684,35.824,45.051,45.000,0.00,0.13,-272.55,-272.62,-27,463,-8,26.2,21.3,2.3,25.9,22.2,2.7,5.73,2.52,4.3,28.2
2013-07-16 00:16:00,3.0,1.87636,0.00047,397.705,0.044,0.0032,0.0022,140.003,45.000,30852.70628,1.87636,397.715,35.826,45.051,45.000,0.00,0.13,-272.55,-272.62,-27,464,-8,26.2,21.4,2.3,25.9,22.2,2.7,5.73,2.55,4.3,28.1
2013-07-16 00:17:00,3.0,1.87625,0.00033,397.708,0.035,0.0028,0.0014,139.999,45.000,30851.41883,1.87632,397.722,35.825,45.051,45.000,0.00,0.13,-272.55,-272.62,-27,464,-8,26.2,21.8,2.7,25.9,22.7,3.0,5.73,2.56,4.3,28.1
2013-07-16 00:18:00,3.0,1.87662,0.00015,397.714,0.017,0.0036,0.0011,140.003,45.000,30851.83953,1.87670,397.734,35.822,45.051,45.000,0.00,0.13,-272.55,-272.62,-27,464,-8,26.2,22.1,2.9,26.0,23.0,3.2,5.73,2.55,4.3,28.1
2013-07-16 00:19:00,3.0,1.87609,0.00025,397.718,0.027,0.0027,0.0014,140.001,45.000,30853.16767,1.87623,397.731,35.830,45.051,45.000,0.00,0.13,-272.55,-272.62,-27,464,-8,26.2,21.9,2.7,26.0,22.8,3.1,5.73,2.52,4.3,28.0
2013-07-16 00:20:00,0.0,1.87123,0.00261,387.268,4.477,0.8047,0.2889,140.007,45.000,31565.92435,1.88571,391.450,35.829,45.051,45.000,0.00,0.13,-272.54,-272.62,-27,579,-8,26.2,21.8,2.7,26.0,22.8,3.1,5.73,2.50,4.3,28.2
2013-07-16 00:21:00,0.0,1.86780,0.00060,384.672,0.057,0.9534,0.0042,140.006,45.000,31653.70432,1.88608,389.217,35.842,45.051,45.000,0.00,0.13,-272.55,-272.62,-27,579,-8,26.3,21.8,2.7,26.0,22.8,3.1,5.73,2.49,4.3,28.2
2013-07-16 00:22:00,0.0,1.86643,0.00045,384.599,0.057,0.9526,0.0018,140.000,45.000,31667.59129,1.88449,389.155,35.847,45.051,45.000,0.00,0.13,-272.55,-272.62,-27,579,-8,26.3,21.7,2.7,26.0,22.7,3.1,5.73,2.50,4.3,28.1
2013-07-16 00:23:00,0.0,1.86667,0.00043,384.538,0.103,0.9578,0.0031,139.996,45.000,31676.46761,1.88490,389.102,35.844,45.051,45.000,0.00,0.13,-272.55,-272.61,-27,580,-8,26.3,21.7,2.7,26.0,22.7,3.1,5.73,2.53,4.3,28.1
2013-07-16 00:24:00,0.0,1.86644,0.00027,384.723,0.038,0.9440,0.0067,139.995,45.000,31687.19276,1.88427,389.225,35.870,45.051,45.000,0.00,0.13,-272.55,-272.61,-27,580,-8,26.3,21.3,2.4,26.0,22.3,2.9,5.73,2.56,4.3,28.2
2013-07-16 00:25:00,0.0,1.86558,0.00053,384.587,0.070,0.9470,0.0084,140.002,45.000,31694.09739,1.88348,389.104,35.875,45.051,45.000,0.00,0.13,-272.55,-272.62,-27,580,-8,26.3,21.4,2.5,26.1,22.3,2.9,5.73,2.57,4.3,28.2
2013-07-16 00:26:00,0.0,1.86608,0.00029,384.665,0.055,0.9526,0.0069,140.001,45.000,31702.67642,1.88414,389.203,35.875,45.051,45.000,0.00,0.13,-272.55,-272.62,-27,580,-8,26.3,21.5,2.5,26.1,22.5,3.0,5.73,2.55,4.3,28.1
2013-07-16 00:27:00,0.0,1.86649,0.00056,384.642,0.101,0.9340,0.0039,139.998,45.000,31706.10596,1.88413,389.104,35.880,45.051,45.000,0.00,0.13,-272.54,-272.62,-27,580,-8,26.3,21.1,2.3,26.1,22.0,2.7,5.73,2.52,4.3,28.0
2013-07-16 00:28:00,0.0,1.86658,0.00013,384.776,0.045,0.9304,0.0033,139.999,45.000,31712.99855,1.88418,389.200,35.875,45.051,45.000,0.00,0.13,-272.55,-272.62,-27,580,-8,26.3,21.0,2.2,26.1,21.9,2.7,5.73,2.50,4.3,28.1
2013-07-16 00:29:00,0.0,1.86682,0.00038,384.864,0.039,0.9252,0.0034,140.003,45.000,31719.17026,1.88437,389.277,35.875,45.051,45.000,0.00,0.13,-272.55,-272.62,-27,580,-8,26.3,20.8,2.1,26.1,21.7,2.5,5.73,2.49,4.3,28.1
2013-07-16 00:30:00,0.0,1.86647,0.00039,384.772,0.047,0.9182,0.0017,139.999,45.000,31721.48109,1.88386,389.160,35.880,45.051,45.000,0.00,0.13,-272.55,-272.62,-27,580,-8,26.3,20.7,2.0,26.1,21.6,2.4,5.73,2.51,4.3,28.3
2013-07-16 00:31:00,0.0,1.86645,0.00016,384.767,0.067,0.9229,0.0021,140.003,45.000,31726.69435,1.88390,389.165,35.875,45.051,45.000,0.00,0.13,-272.55,-272.62,-27,580,-8,26.3,20.7,2.1,26.1,21.7,2.5,5.73,2.53,4.3,28.3
2013-07-16 00:32:00,0.0,1.86647,0.00028,384.697,0.054,0.9261,0.0023,140.000,45.000,31726.41548,1.88398,389.107,35.888,45.051,45.000,0.00,0.13,-272.55,-272.62,-27,580,-8,26.3,20.8,2.1,26.1,21.8,2.6,5.73,2.55,4.3,28.2
2013-07-16 00:33:00,0.0,1.86678,0.00036,384.692,0.034,0.9251,0.0029,140.000,45.000,31729.09815,1.88426,389.100,35.886,45.051,45.000,0.00,0.13,-272.55,-272.62,-27,580,-8,26.3,20.8,2.1,26.1,21.7,2.5,5.73,2.56,4.3,28.3
2013-07-16 00:34:00,0.0,1.86684,0.00018,384.715,0.088,0.9186,0.0032,139.994,45.000,31729.43975,1.88421,389.099,35.892,45.051,45.000,0.00,0.13,-272.55,-272.62,-27,580,-8,26.3,20.6,2.0,26.1,21.5,2.4,5.73,2.55,4.3,28.2
2013-07-16 00:35:00,0.0,1.86694,0.00017,384.658,0.064,0.9217,0.0047,139.997,45.000,31730.53981,1.88434,389.045,35.892,45.051,45.000,0.00,0.13,-272.55,-272.62,-27,580,-8,26.3,20.7,2.0,26.1,21.6,2.5,5.73,2.53,4.3,28.2
2013-07-16 00:36:00,0.0,1.86705,0.00037,384.635,0.101,0.9149,0.0019,140.001,45.000,31733.19492,1.88443,389.009,35.914,45.051,45.000,0.00,0.13,-272.55,-272.62,-27,580,-8,26.3,20.5,1.9,26.1,21.4,2.4,5.73,2.50,4.3,28.3
2013-07-16 00:37:00,0.0,1.86612,0.00035,384.397,0.067,0.9342,0.0056,140.000,45.000,31735.95590,1.88388,388.843,35.920,45.051,45.000,0.00,0.13,-272.54,-272.62,-27,580,-8,26.3,20.9,2.2,26.1,21.9,2.6,5.73,2.49,4.3,28.3
2013-07-16 00:38:00,0.0,1.86609,0.00071,384.420,0.116,0.9427,0.0051,139.998,45.000,31736.76609,1.88388,388.901,35.921,45.051,45.000,0.00,0.13,-272.55,-272.62,-27,580,-8,26.3,21.1,2.3,26.1,22.1,2.8,5.73,2.50,4.3,28.3
2013-07-16 00:39:00,0.0,1.86601,0.00022,384.527,0.059,0.9360,0.0021,140.004,45.000,31741.60636,1.88376,388.996,35.938,45.050,45.000,0.00,0.13,-272.55,-272.62,-27,580,-8,26.3,21.0,2.2,26.1,21.9,2.7,5.73,2.52,4.3,28.5
2013-07-16 00:40:00,0.0,1.86624,0.00032,384.650,0.076,0.9261,0.0058,139.998,45.000,31740.22038,1.88374,389.055,35.936,45.050,45.000,0.00,0.13,-272.55,-272.62,-27,580,-8,26.3,20.7,2.0,26.1,21.7,2.5,5.73,2.54,4.3,28.5
2013-07-16 00:41:00,0.0,1.86716,0.00041,384.731,0.024,0.9175,0.0030,140.001,45.000,31739.99886,1.88435,389.103,35.938,45.051,45.000,0.00,0.13,-272.55,-272.61,-27,580,-8,26.3,20.5,1.9,26.1,21.5,2.4,5.73,2.55,4.4,28.5
2013-07-16 00:42:00,0.0,1.86711,0.00049,384.693,0.045,0.9160,0.0034,140.000,45.000,31738.40990,1.88443,389.055,35.938,45.051,45.000,0.00,0.13,-272.55,-272.62,-27,580,-8,26.3,20.5,1.9,26.1,21.4,2.3,5.73,2.56,4.4,28.4
2013-07-16 00:43:00,0.0,1.86733,0.00046,384.745,0.028,0.9159,0.0049,140.006,45.000,31740.24601,1.88471,389.110,35.938,45.051,45.000,0.00,0.13,-272.55,-272.62,-27,580,-8,26.3,20.5,1.9,26.1,21.4,2.3,5.73,2.54,4.4,28.5
2013-07-16 00:44:00,0.0,1.86656,0.00024,384.713,0.060,0.9156,0.0028,139.995,45.000,31740.05182,1.88396,389.073,35.939,45.051,45.000,0.00,0.13,-272.55,-272.62,-27,580,-8,26.3,20.5,1.9,26.1,21.4,2.3,5.73,2.52,4.4,28.5
2013-07-16 00:45:00,0.0,1.86681,0.00031,384.807,0.039,0.9077,0.0040,139.999,45.000,31742.48930,1.88390,389.131,35.938,45.051,45.000,0.00,0.13,-272.55,-272.62,-27,580,-8,26.3,20.3,1.7,26.1,21.2,2.2,5.73,2.50,4.4,28.4
2013-07-16 00:46:00,0.0,1.86746,0.00045,384.812,0.018,0.9054,0.0017,140.001,45.000,31740.52114,1.88447,389.128,35.944,45.051,45.000,0.00,0.13,-272.55,-272.62,-27,580,-8,26.3,20.2,1.7,26.1,21.1,2.2,5.73,2.49,4.4,28.3
2013-07-16 00:47:00,0.0,1.86776,0.00043,384.736,0.055,0.9084,0.0035,140.005,45.000,31742.79756,1.88503,389.065,35.939,45.051,45.000,0.00,0.13,-272.55,-272.62,-27,580,-8,26.3,20.2,1.7,26.1,21.2,2.2,5.73,2.50,4.4,28.5
2013-07-16 00:48:00,0.0,1.86820,0.00047,384.746,0.042,0.9016,0.0028,139.997,45.000,31738.50465,1.88519,389.046,35.939,45.051,45.000,0.00,0.13,-272.55,-272.62,-27,580,-8,26.3,20.1,1.7,26.1,21.1,2.1,5.73,2.51,4.4,28.5
2013-07-16 00:49:00,0.0,1.86794,0.00015,384.660,0.039,0.9027,0.0044,139.997,45.000,31739.46010,1.88504,388.956,35.958,45.051,45.000,0.00,0.13,-272.55,-272.62,-27,580,-8,26.3,20.1,1.6,26.1,21.0,2.1,5.73,2.53,4.4,28.6
2013-07-16 00:50:00,0.0,1.86801,0.00028,384.578,0.109,0.9125,0.0024,140.001,45.000,31741.06557,1.88530,388.936,35.989,45.051,45.000,0.00,0.13,-272.55,-272.62,-27,580,-8,26.3,20.4,1.8,26.1,21.3,2.2,5.73,2.55,4.4,28.5
2013-07-16 00:51:00,0.0,1.86784,0.00048,384.486,0.065,0.9175,0.0034,140.003,45.000,31745.13748,1.88526,388.846,35.993,45.051,45.000,0.00,0.13,-272.55,-272.62,-27,580,-8,26.3,20.5,1.9,26.1,21.4,2.3,5.73,2.55,4.4,28.5
2013-07-16 00:52:00,0.0,1.86804,0.00055,384.441,0.088,0.9148,0.0051,139.996,45.000,31745.40244,1.88530,388.804,35.999,45.051,45.000,0.00,0.13,-272.55,-272.62,-27,580,-8,26.3,20.5,1.9,26.1,21.4,2.3,5.73,2.54,4.4,28.6
2013-07-16 00:53:00,0.0,1.86798,0.00025,384.410,0.031,0.9173,0.0038,139.999,45.000,31745.72767,1.88529,388.771,36.000,45.050,45.000,0.00,0.13,-272.54,-272.62,-27,580,-8,26.3,20.5,1.9,26.1,21.5,2.3,5.73,2.53,4.4,28.5
2013-07-16 00:54:00,0.0,1.86738,0.00051,384.457,0.046,0.9182,0.0038,140.000,45.000,31747.51606,1.88495,388.830,36.002,45.050,45.000,0.00,0.13,-272.55,-272.61,-27,580,-8,26.3,20.5,1.9,26.1,21.4,2.3,5.73,2.51,4.4,28.4
2013-07-16 00:55:00,0.0,1.86703,0.00026,384.425,0.031,0.9204,0.0036,140.003,45.000,31747.95875,1.88437,388.806,36.012,45.051,45.000,0.00,0.13,-272.55,-272.62,-27,580,-8,26.3,20.6,1.9,26.1,21.5,2.3,5.73,2.50,4.4,28.4
2013-07-16 00:56:00,0.0,1.86710,0.00030,384.431,0.031,0.9212,0.0015,140.001,45.000,31748.04086,1.88458,388.817,36.014,45.051,45.000,0.00,0.13,-272.55,-272.62,-27,580,-8,26.3,20.6,1.9,26.1,21.5,2.4,5.73,2.50,4.4,28.5
2013-07-16 00:57:00,0.0,1.86659,0.00041,384.333,0.099,0.9290,0.0082,139.998,45.000,31746.69007,1.88417,388.753,36.015,45.051,45.000,0.00,0.13,-272.55,-272.62,-27,580,-8,26.3,20.8,2.1,26.1,21.7,2.5,5.73,2.51,4.4,28.5
2013-07-16 00:58:00,0.0,1.86641,0.00063,384.114,0.124,0.9494,0.0029,139.999,45.000,31747.92963,1.88442,388.653,36.044,45.051,45.000,0.00,0.13,-272.55,-272.62,-27,580,-8,26.3,21.3,2.4,26.1,22.2,2.8,5.73,2.53,4.4,28.4
2013-07-16 00:59:00,0.0,1.86614,0.00039,383.953,0.115,0.9690,0.0080,140.000,45.000,31748.84844,1.88446,388.552,36.055,45.051,45.000,0.00,0.13,-272.55,-272.62,-27,580,-8,26.3,21.7,2.7,26.1,22.7,3.1,5.73,2.55,4.4,28.4
2013-07-16 01:00:00,0.0,1.86640,0.00037,384.133,0.036,0.9609,0.0113,139.999,45.000,31749.49285,1.88464,388.723,36.063,45.051,45.000,0.00,0.13,-272.55,-272.62,-27,580,-8,26.3,21.5,2.6,26.1,22.5,3.0,5.73,2.56,4.4,28.5
2013-07-16 01:01:00,0.0,1.86596,0.00030,384.065,0.146,0.9487,0.0043,139.998,45.000,31750.02106,1.88392,388.591,36.063,45.051,45.000,0.00,0.13,-272.54,-272.61,-27,580,-8,26.3,21.2,2.4,26.1,22.2,2.8,5.73,2.55,4.4,28.5
2013-07-16 01:02:00,0.0,1.86598,0.00037,384.087,0.068,0.9666,0.0034,140.001,45.000,31750.64969,1.88423,388.679,36.068,45.051,45.000,0.00,0.13,-272.55,-272.62,-27,580,-8,26.3,21.6,2.6,26.1,22.6,3.1,5.73,2.54,4.4,28.4
2013-07-16 01:03:00,0.0,1.86593,0.00069,384.148,0.085,0.9620,0.0051,140.000,45.000,31748.76065,1.88411,388.729,36.063,45.051,45.000,0.00,0.13,-272.55,-272.62,-27,580,-8,26.3,21.5,2.5,26.1,22.5,3.0,5.73,2.51,4.4,28.5
2013-07-16 01:04:00,0.0,1.86631,0.00066,384.216,0.075,0.9508,0.0036,139.997,45.000,31748.44034,1.88444,388.742,36.064,45.051,45.000,0.00,0.13,-272.55,-272.62,-27,580,-8,26.3,21.2,2.4,26.1,22.2,2.8,5.73,2.49,4.4,28.4
2013-07-16 01:05:00,0.0,1.86581,0.00031,384.310,0.031,0.9524,0.0022,139.997,45.000,31748.99220,1.88380,388.852,36.063,45.051,45.000,0.00,0.13,-272.55,-272.62,-27,580,-8,26.3,21.2,2.4,26.1,22.2,2.8,5.73,2.49,4.4,28.5
2013-07-16 01:06:00,0.0,1.86595,0.00031,384.360,0.086,0.9453,0.0029,140.002,45.000,31750.31356,1.88376,388.854,36.063,45.051,45.000,0.00,0.13,-272.55,-272.62,-27,580,-8,26.3,21.1,2.3,26.1,22.1,2.7,5.73,2.51,4.4,28.5
2013-07-16 01:07:00,0.0,1.86635,0.00022,384.437,0.044,0.9329,0.0064,140.003,45.000,31752.13915,1.88403,388.888,36.091,45.051,45.000,0.00,0.13,-272.55,-272.62,-27,580,-8,26.3,20.8,2.1,26.1,21.8,2.6,5.73,2.52,4.4,28.5
2013-07-16 01:08:00,0.0,1.86667,0.00064,384.463,0.046,0.9233,0.0024,140.001,45.000,31751.14022,1.88410,388.862,36.098,45.051,45.000,0.00,0.13,-272.55,-272.62,-27,580,-8,26.3,20.6,1.9,26.1,21.5,2.4,5.73,2.54,4.4,28.6
2013-07-16 01:09:00,0.0,1.86652,0.00061,384.420,0.038,0.9294,0.0082,140.001,45.000,31750.26135,1.88413,388.843,36.102,45.051,45.000,0.00,0.13,-272.55,-272.62,-27,580,-8,26.3,20.7,2.1,26.1,21.7,2.5,5.73,2.55,4.4,28.5
2013-07-16 01:10:00,0.0,1.86600,0.00018,384.353,0.056,0.9477,0.0034,140.001,45.000,31750.88879,1.88396,388.870,36.122,45.051,45.000,0.00,0.13,-272.55,-272.62,-27,580,-8,26.3,21.1,2.3,26.1,22.1,2.7,5.73,2.55,4.4,28.4
2013-07-16 01:11:00,0.0,1.86610,0.00031,384.349,0.048,0.9434,0.0012,139.998,45.000,31750.25098,1.88400,388.850,36.123,45.050,45.000,0.00,0.13,-272.55,-272.62,-27,580,-8,26.3,21.0,2.3,26.1,22.0,2.7,5.73,2.54,4.4,28.4
2013-07-16 01:12:00,0.0,1.86626,0.00030,384.490,0.049,0.9356,0.0077,139.999,45.000,31747.67906,1.88392,388.944,36.120,45.051,45.000,0.00,0.13,-272.55,-272.62,-27,580,-8,26.3,20.9,2.1,26.1,21.9,2.6,5.73,2.53,4.4,28.4
2013-07-16 01:13:00,0.0,1.86605,0.00021,384.412,0.033,0.9379,0.0050,139.999,45.000,31747.64741,1.88382,388.878,36.125,45.051,45.000,0.00,0.13,-272.55,-272.62,-27,580,-8,26.3,20.9,2.2,26.1,21.9,2.6,5.73,2.51,4.5,28.5
2013-07-16 01:14:00,0.0,1.86668,0.00033,384.622,0.042,0.9312,0.0114,139.999,45.000,31748.48305,1.88423,389.056,36.125,45.051,45.000,0.00,0.13,-272.55,-272.62,-27,580,-8,26.3,20.7,2.0,26.1,21.7,2.5,5.73,2.50,4.4,28.4
2013-07-16 01:15:00,0.0,1.86662,0.00032,384.518,0.098,0.9170,0.0057,140.003,45.000,31750.44629,1.88401,388.895,36.125,45.051,45.000,0.00,0.13,-272.55,-272.62,-27,580,-8,26.3,20.4,1.8,26.1,21.4,2.3,5.73,2.50,4.5,28.5
2013-07-16 01:16:00,0.0,1.86617,0.00046,384.500,0.052,0.9303,0.0028,139.997,45.000,31751.64567,1.88383,388.929,36.125,45.051,45.000,0.00,0.13,-272.55,-272.62,-27,580,-8,26.3,20.7,2.0,26.1,21.7,2.5,5.73,2.51,4.5,28.4
2013-07-16 01:17:00,0.0,1.86606,0.00049,384.549,0.055,0.9301,0.0013,140.002,45.000,31752.78849,1.88365,388.973,36.125,45.051,45.000,0.00,0.13,-272.55,-272.62,-27,580,-8,26.3,20.7,2.0,26.1,21.7,2.5,5.73,2.52,4.5,28.5
2013-07-16 01:18:00,0.0,1.86582,0.00023,384.402,0.049,0.9263,0.0044,139.997,45.000,31753.01255,1.88334,388.822,36.125,45.051,45.000,0.00,0.13,-272.55,-272.62,-27,580,-8,26.3,20.6,2.0,26.1,21.6,2.4,5.73,2.54,4.5,28.4
2013-07-16 01:19:00,0.0,1.86579,0.00034,384.414,0.034,0.9304,0.0017,140.005,45.000,31756.21711,1.88340,388.846,36.129,45.051,45.000,0.00,0.13,-272.55,-272.62,-27,580,-8,26.3,20.7,2.0,26.1,21.7,2.5,5.73,2.55,4.5,28.3
2013-07-16 01:20:00,0.0,1.86613,0.00027,384.471,0.036,0.9215,0.0049,139.999,45.000,31753.42698,1.88350,388.854,36.133,45.051,45.000,0.00,0.13,-272.55,-272.62,-27,580,-8,26.3,20.5,1.9,26.1,21.5,2.4,5.73,2.55,4.5,28.4
2013-07-16 01:21:00,0.0,1.86654,0.00037,384.629,0.040,0.9122,0.0068,139.995,45.000,31750.65949,1.88379,388.976,36.143,45.051,45.000,0.00,0.13,-272.55,-272.62,-27,580,-8,26.3,20.2,1.7,26.1,21.2,2.2,5.73,2.54,4.5,28.5
2013-07-16 01:22:00,0.0,1.86626,0.00039,384.643,0.029,0.9034,0.0019,139.999,45.000,31753.16575,1.88343,388.941,36.153,45.051,45.000,0.00,0.13,-272.55,-272.62,-27,580,-8,26.3,20.1,1.6,26.1,21.0,2.1,5.73,2.53,4.5,28.5
2013-07-16 01:23:00,0.0,1.86612,0.00026,384.635,0.044,0.8962,0.0036,140.002,45.000,31755.53600,1.88298,388.904,36.168,45.051,45.000,0.00,0.13,-272.55,-272.62,-27,580,-8,26.3,19.9,1.5,26.1,20.8,1.9,5.73,2.51,4.5,28.5
2013-07-16 01:24:00,0.0,1.86631,0.00023,384.693,0.045,0.8932,0.0051,139.996,45.000,31754.79495,1.88320,388.944,36.178,45.051,45.000,0.00,0.13,-272.55,-272.62,-27,580,-8,26.3,19.8,1.4,26.1,20.8,1.9,5.73,2.50,4.5,28.5
2013-07-16 01:25:00,0.0,1.86612,0.00042,384.696,0.024,0.8912,0.0036,140.003,45.000,31758.20022,1.88306,388.940,36.188,45.051,45.000,0.00,0.13,-272.55,-272.62,-27,580,-8,26.3,19.8,1.4,26.1,20.8,1.9,5.73,2.50,4.5,28.5
2013-07-16 01:26:00,0.0,1.86612,0.00038,384.695,0.038,0.8928,0.0027,139.997,45.000,31756.61391,1.88291,388.944,36.188,45.051,45.000,0.00,0.13,-272.55,-272.62,-27,580,-8,26.3,19.8,1.4,26.1,20.8,1.9,5.73,2.50,4.5,28.5
2013-07-16 01:27:00,0.0,1.86644,0.00038,384.684,0.016,0.8917,0.0033,139.999,45.000,31756.87181,1.88328,388.933,36.187,45.051,45.000,0.00,0.13,-272.54,-272.62,-27,580,-8,26.3,19.8,1.4,26.1,20.7,1.9,5.73,2.52,4.5,28.5
2013-07-16 01:28:00,0.0,1.86644,0.00037,384.660,0.039,0.8883,0.0029,140.001,45.000,31758.96115,1.88314,388.890,36.188,45.051,45.000,0.00,0.13,-272.55,-272.62,-27,580,-8,26.3,19.7,1.4,26.1,20.7,1.8,5.73,2.53,4.5,28.5
2013-07-16 01:29:00,0.0,1.86633,0.00018,384.647,0.047,0.8887,0.0026,140.000,45.000,31758.20526,1.88317,388.880,36.188,45.051,45.000,0.00,0.13,-272.55,-272.62,-27,580,-8,26.3,19.7,1.4,26.1,20.7,1.9,5.73,2.55,4.5,28.5
2013-07-16 01:30:00,0.0,1.86626,0.00054,384.668,0.038,0.8868,0.0015,139.999,45.000,31757.41147,1.88300,388.881,36.188,45.051,45.000,0.00,0.13,-272.55,-272.62,-27,580,-8,26.3,19.7,1.3,26.1,20.6,1.8,5.73,2.55,4.5,28.7
2013-07-16 01:31:00,0.0,1.86638,0.00044,384.672,0.028,0.8857,0.0027,139.995,45.000,31756.26012,1.88311,388.889,36.188,45.051,45.000,0.00,0.13,-272.55,-272.62,-27,580,-8,26.3,19.7,1.3,26.1,20.6,1.8,5.73,2.55,4.5,28.6
2013-07-16 01:32:00,0.0,1.86651,0.00024,384.682,0.034,0.8892,0.0029,139.998,45.000,31756.82580,1.88331,388.910,36.189,45.051,45.000,0.00,0.13,-272.55,-272.62,-27,580,-8,26.3,19.7,1.4,26.1,20.7,1.8,5.73,2.53,4.5,28.6
2013-07-16 01:33:00,0.0,1.86608,0.00019,384.772,0.032,0.8916,0.0037,139.998,45.000,31756.78609,1.88297,389.009,36.195,45.051,45.000,0.00,0.13,-272.55,-272.62,-27,580,-8,26.3,19.8,1.4,26.1,20.7,1.9,5.73,2.51,4.5,28.7
2013-07-16 01:34:00,0.0,1.86594,0.00029,384.690,0.056,0.8974,0.0044,139.999,45.000,31755.11513,1.88284,388.966,36.193,45.051,45.000,0.00,0.13,-272.55,-272.62,-27,580,-8,26.3,19.9,1.5,26.1,20.9,2.0,5.73,2.50,4.5,28.7
2013-07-16 01:35:00,0.0,1.86640,0.00032,384.817,0.039,0.8956,0.0047,140.001,45.000,31756.94965,1.88330,389.083,36.199,45.051,45.000,0.00,0.13,-272.55,-272.62,-27,580,-8,26.3,19.9,1.5,26.1,20.8,1.9,5.73,2.50,4.5,28.8
2013-07-16 01:36:00,0.0,1.86641,0.00038,384.763,0.023,0.8924,0.0025,139.999,45.000,31753.78586,1.88326,389.011,36.200,45.051,45.000,0.00,0.13,-272.54,-272.62,-27,580,-8,26.3,19.8,1.4,26.1,20.7,1.9,5.73,2.50,4.6,28.7
2013-07-16 01:37:00,0.0,1.86683,0.00027,384.701,0.047,0.8894,0.0020,139.999,45.000,31755.80202,1.88365,388.942,36.208,45.051,45.000,0.00,0.13,-272.55,-272.62,-27,580,-8,26.3,19.7,1.4,26.1,20.7,1.8,5.73,2.51,4.6,28.6
2013-07-16 01:38:00,0.0,1.86696,0.00033,384.719,0.037,0.8918,0.0056,140.003,45.000,31753.87726,1.88383,388.962,36.219,45.051,45.000,0.00,0.13,-272.55,-272.62,-27,580,-8,26.3,19.8,1.4,26.1,20.8,1.9,5.73,2.53,4.5,28.5
2013-07-16 01:39:00,0.0,1.86704,0.00030,384.702,0.057,0.8879,0.0016,139.998,45.000,31753.31568,1.88381,388.933,36.242,45.051,45.000,0.00,0.13,-272.54,-272.62,-27,580,-8,26.3,19.7,1.3,26.1,20.7,1.9,5.73,2.55,4.5,28.6
2013-07-16 01:40:00,0.0,1.86681,0.00026,384.708,0.059,0.8899,0.0062,139.999,45.000,31754.70243,1.88364,388.937,36.245,45.051,45.000,0.00,0.13,-272.55,-272.62,-27,580,-8,26.4,19.7,1.4,26.1,20.7,1.9,5.73,2.55,4.6,28.6
2013-07-16 01:41:00,0.0,1.86675,0.00016,384.731,0.046,0.8828,0.0044,139.997,45.000,31756.50626,1.88343,388.935,36.246,45.051,45.000,0.00,0.13,-272.54,-272.62,-27,580,-8,26.3,19.6,1.3,26.1,20.5,1.8,5.73,2.54,4.6,28.6
2013-07-16 01:42:00,0.0,1.86654,0.00037,384.698,0.059,0.8933,0.0046,139.999,45.000,31755.23569,1.88343,388.944,36.250,45.051,45.000,0.00,0.13,-272.55,-272.61,-27,580,-8,26.4,19.8,1.5,26.1,20.8,1.9,5.73,2.53,4.6,28.7
2013-07-16 01:43:00,0.0,1.86629,0.00037,384.782,0.039,0.8892,0.0031,140.004,45.000,31757.35150,1.88307,389.013,36.250,45.051,45.000,0.00,0.13,-272.55,-272.62,-28,580,-8,26.4,19.7,1.4,26.1,20.6,1.8,5.73,2.52,4.6,28.7
2013-07-16 01:44:00,0.0,1.86654,0.00029,384.750,0.016,0.8864,0.0025,140.001,45.000,31756.81123,1.88334,388.973,36.250,45.051,45.000,0.00,0.13,-272.55,-272.62,-28,580,-8,26.4,19.6,1.3,26.1,20.6,1.8,5.73,2.51,4.6,28.6
2013-07-16 01:45:00,0.0,1.86662,0.00036,384.815,0.041,0.8805,0.0035,140.000,45.000,31758.58016,1.88318,389.003,36.255,45.051,45.000,0.00,0.13,-272.55,-272.62,-27,580,-8,26.4,19.5,1.2,26.1,20.5,1.7,5.73,2.50,4.6,28.6
2013-07-16 01:46:00,0.0,1.86642,0.00039,384.873,0.057,0.8797,0.0028,139.997,45.000,31758.29941,1.88308,389.063,36.257,45.051,45.000,0.00,0.13,-272.55,-272.62,-27,580,-8,26.4,19.4,1.2,26.1,20.4,1.7,5.73,2.50,4.6,28.5
2013-07-16 01:47:00,0.0,1.86643,0.00020,384.725,0.040,0.8916,0.0059,140.003,45.000,31760.92844,1.88326,388.967,36.271,45.051,45.000,0.00,0.13,-272.55,-272.62,-27,580,-8,26.4,19.7,1.4,26.1,20.7,1.9,5.73,2.51,4.6,28.5